Location: Bern�tre
(50.1974°N, 2.0915°E)
Time: 08:26:03
(UTC+00:00)

OBJECT-B - Pass Details

Date: 18 September 2020
Orbit: 421 x 433 km, 97.0° (Epoch: 09 October)

Event Time Altitude Azimuth Distance (km) Brightness Sun altitude
Exits shadow 19:01:25 17° 97° (E) 1,158 2.3 -10.9°
Maximum altitude 19:02:39 21° 66° (ENE) 1,021 2.3 -11.1°
Drops below altitude 10° 19:05:09 10° 16° (NNE) 1,524 3.6 -11.4°
Sets 19:07:29 0° 360° (N) 2,398 4.8 -11.8°
